Simultaneous Nadir Overpasses (SNOs) Predictions

Prediction of SNOs near equator between AQUA and NPP Satellite Orbit:

Table of predicted SNOs near equator for the next 14.0 days since TLE Epoch: 12/5/2015
Index Date (AQUA) Time (AQUA) AQUA Lat,Lon Date (NPP) Time (NPP) NPP Lat,Lon Distance(km) Time Diff (sec)
1 12/05/2015 06:20:31 -29.99, -76.03 12/05/2015 06:10:31 -30.43, -75.93 49.65 600
2 12/05/2015 07:07:24 20.51, 93.93 12/05/2015 06:58:30 20.51, 93.94 1.15 534
3 12/05/2015 07:50:36 1.83, -93.53 12/05/2015 07:42:50 1.86, -93.60 8.02 466
4 12/05/2015 08:38:51 -6.43, 75.07 12/05/2015 08:32:20 -6.51, 74.74 37.57 391
5 12/05/2015 09:26:58 10.96,-116.29 12/05/2015 09:21:43 11.08,-116.89 66.88 315
6 12/05/2015 10:15:13 -15.55, 52.34 12/05/2015 10:11:13 -15.72, 51.48 94.22 240
7 12/07/2015 22:37:00 -29.97, 39.86 12/07/2015 22:27:17 -29.97, 39.96 10.05 583
8 12/07/2015 23:21:11 10.71,-148.00 12/07/2015 23:12:37 10.71,-147.98 1.20 514
9 12/08/2015 00:06:41 3.31, 22.66 12/07/2015 23:59:19 3.33, 22.50 18.29 442
10 12/08/2015 00:54:57 -7.84,-168.75 12/08/2015 00:48:50 -7.92,-169.18 47.85 367
11 12/08/2015 01:43:03 12.43, -0.09 12/08/2015 01:38:12 12.55, -0.79 76.71 291
12 12/10/2015 14:53:04 -28.46, 156.13 12/10/2015 14:43:45 -28.46, 156.14 1.28 559
13 12/10/2015 15:34:49 0.37, -29.90 12/10/2015 15:26:35 0.37, -29.89 1.05 494
14 12/10/2015 16:22:46 4.76, 138.85 12/10/2015 16:15:48 4.79, 138.59 28.84 418
15 12/10/2015 17:11:02 -9.30, -52.55 12/10/2015 17:05:19 -9.38, -53.08 58.09 343
16 12/10/2015 17:59:09 13.83, 116.10 12/10/2015 17:54:41 14.01, 115.32 86.36 268
17 12/13/2015 06:20:35 29.97, 103.97 12/13/2015 06:10:35 30.67, 103.98 77.97 600
18 12/13/2015 07:07:11 -19.94, -85.92 12/13/2015 06:58:13 -19.94, -85.91 0.67 538
19 12/13/2015 07:50:44 -1.66, 86.42 12/13/2015 07:42:54 -1.67, 86.33 9.09 470
20 12/13/2015 08:38:51 6.20,-104.96 12/13/2015 08:32:17 6.25,-105.31 39.31 394
21 12/13/2015 09:27:06 -10.79, 63.65 12/13/2015 09:21:47 -10.89, 63.04 68.16 319
22 12/13/2015 10:15:14 15.26,-127.70 12/13/2015 10:11:10 15.46,-128.57 95.94 244
23 12/15/2015 22:37:02 29.94,-140.14 12/15/2015 22:27:16 29.99,-140.06 9.28 586
24 12/15/2015 23:21:07 -10.81, 32.01 12/15/2015 23:12:30 -10.81, 32.00 0.56 517
25 12/16/2015 00:06:48 -3.08,-157.40 12/15/2015 23:59:22 -3.12,-157.57 19.71 446
26 12/16/2015 00:54:54 7.68, 11.24 12/16/2015 00:48:44 7.76, 10.80 49.65 370
27 12/16/2015 01:43:10 -12.20, 179.85 12/16/2015 01:38:15 -12.33, 179.14 78.19 295
28 12/18/2015 14:53:07 28.55, -23.90 12/18/2015 14:43:45 28.55, -23.90 0.32 562
29 12/18/2015 15:34:55 -1.13, 149.97 12/18/2015 15:26:39 -1.14, 149.95 1.91 496
30 12/18/2015 16:22:52 -4.54, -41.20 12/18/2015 16:15:50 -4.62, -41.47 30.57 422
31 12/18/2015 17:10:58 9.14, 127.44 12/18/2015 17:05:12 9.26, 126.91 60.03 346
32 12/18/2015 17:59:14 -13.66, -63.95 12/18/2015 17:54:43 -13.83, -64.74 88.10 271
